Location: Carrer del Canonge
(41.4901°N, 2.2931°E)
Time: 14:11:31
(UTC+00:00)

Cosmos 2026 Rocket - Pass Details

Date: 18 September 2020
Orbit: 940 x 1000 km, 82.9° (Epoch: 28 October)

Event Time Altitude Azimuth Distance (km) Brightness Sun altitude
Rises 19:57:47 0° 357° (N) 3,717 7.4 -23.2°
Reaches altitude 10° 20:00:24 10° 2° (N) 2,770 6.6 -23.7°
Maximum altitude 20:06:36 51° 78° (ENE) 1,236 4.2 -24.7°
Enters shadow 20:06:54 51° 88° (E) 1,241 4.1 -24.8°
